[[[{"header":{"parameterUnit":"kt","parameterCategory":2,"dx":1,"dy":1,"la1":30.253999710083008,"la2":30.299108505249023,"lo1":-89.0895004272461,"lo2":-89.04439544677734,"nx":28,"ny":28,"refTime":"2022-10-25T21:00:00:Z","depth":0,"parameterNumber":1,"parameterNumberName":"U-component_of_WINDS"},"data":[3.7662,3.7717,3.7735,3.7806,3.7833,3.7885,3.7908,3.7941,3.7972,3.8035,3.8075,3.8098,3.8135,3.8187,3.823,3.8239,3.8256,3.8265,3.8273,3.8222,3.8216,3.821,3.8197,3.8269,3.8269,3.8324,3.8324,3.8325,3.7627,3.7655,3.7697,3.775,3.7787,3.779,3.7832,3.7862,3.7908,3.7945,3.7985,3.8042,3.8089,3.8123,3.8171,3.8198,3.8201,3.821,3.8207,3.8212,3.8159,3.8145,3.8206,3.8206,3.8206,3.8206,3.8206,3.8206,3.7568,3.76,3.7641,3.7687,3.7718,3.7753,3.7787,3.7813,3.7854,3.7906,3.7918,3.7969,3.8009,3.8074,3.81,3.8141,3.8134,3.8148,3.8151,3.8154,3.8155,3.8074,3.815,3.815,3.815,3.815,3.815,0,3.7529,3.7541,3.7582,3.7629,3.7663,3.77,3.7736,3.7758,3.7787,3.7819,3.7868,3.7899,3.796,3.8007,3.8055,3.8078,3.8082,3.8084,3.8094,3.8088,3.8078,3.8083,3.7994,3.8081,3.808,3.808,3.808,3.8079,3.747,3.7505,3.7555,3.7582,3.7605,3.7647,3.7676,3.7699,3.7728,3.7776,3.7803,3.7851,3.7889,3.7964,3.7992,3.8037,3.8039,3.8071,3.8045,3.804,3.8039,3.8036,3.8039,3.8074,3.8075,3.8075,3.8076,0,3.7435,3.746,3.752,3.7565,3.7578,3.7613,3.7652,3.7684,3.7705,3.7753,3.7766,3.7798,3.7844,3.7868,3.7925,3.7936,3.7996,3.7997,3.7983,3.7984,3.8014,3.8011,3.8109,3.8123,3.8051,3.8051,3.8052,0,3.7393,3.7438,3.7473,3.7506,3.7557,3.7578,3.7627,3.765,3.7683,3.7721,3.7729,3.7765,3.7788,3.7827,3.7843,3.7896,3.7907,3.7918,3.7921,3.7916,3.7914,3.7929,3.7925,3.7927,3.7927,3.7926,3.7926,0,3.7333,3.7404,3.7458,3.7478,3.7529,3.7554,3.7577,3.7613,3.764,3.7679,3.7696,3.774,3.7763,3.7798,3.7816,3.7799,3.7882,3.7861,3.7893,3.7892,3.7907,3.7906,3.799,3.7925,3.7925,3.7925,3.7925,0,3.7302,3.7341,3.7415,3.7458,3.7475,3.751,3.7554,3.7589,3.7627,3.7639,3.7669,3.7676,3.7724,3.7702,3.7769,3.774,3.7763,3.7778,3.778,3.7784,3.7757,3.78,3.7878,3.7887,3.7791,3.779,3.7789,0,3.7227,3.7308,3.7325,3.7394,3.7434,3.744,3.748,3.7512,3.7531,3.7568,3.7589,3.763,3.7618,3.7633,3.7664,3.7686,3.7724,3.7682,3.7733,3.7735,3.7722,3.7795,3.78,3.7859,3.7775,3.7776,3.7777,0,3.7171,3.7232,3.7242,3.7266,3.7311,3.7344,3.7389,3.7434,3.7458,3.7493,3.7531,3.7589,3.7582,3.7607,3.7617,3.7647,3.7699,3.7635,3.7636,3.7645,3.7769,3.7774,3.7784,3.7699,3.77,3.7702,3.7766,0,3.7117,3.716,3.7191,3.724,3.7269,3.7312,3.7335,3.7362,3.7369,3.7386,3.7443,3.7473,3.7517,3.7534,3.7539,3.7601,3.7593,3.7585,3.7562,3.761,3.7632,3.7641,3.7529,3.7528,3.7528,3.7527,0,0,3.7038,3.7099,3.7114,3.7158,3.7183,3.7186,3.7231,3.7256,3.7305,3.7322,3.731,3.7395,3.742,3.7485,3.7502,3.752,3.7532,3.7513,3.7588,3.7594,3.76,3.7623,3.7632,3.7526,3.7526,3.7526,3.7526,0,3.7022,3.7048,3.7092,3.7119,3.7158,3.7174,3.7185,3.7223,3.7236,3.729,3.7291,3.7327,3.7392,3.7419,3.744,3.7507,3.7504,3.7519,3.7548,3.7582,3.759,3.7596,3.762,3.7628,3.7525,3.7525,3.7525,0,3.697,3.6999,3.7022,3.7078,3.7103,3.7143,3.7126,3.7169,3.7199,3.7197,3.725,3.7269,3.7305,3.7364,3.7391,3.738,3.7478,3.745,3.7453,3.7456,3.749,3.7499,3.7506,3.7404,3.7404,3.7403,0,0,3.6953,3.6992,3.7027,3.7076,3.7092,3.7116,3.7139,3.7146,3.7178,3.7191,3.7215,3.7246,3.7285,3.7309,3.7346,3.7408,3.7416,3.7434,3.744,3.7445,3.7449,3.7485,3.7493,3.7401,3.7401,3.7401,0,0,3.6944,3.6987,3.6987,3.7046,3.7078,3.7115,3.7144,3.7144,3.7179,3.7176,3.719,3.7198,3.7253,3.7271,3.7244,3.7338,3.7316,3.7323,3.7324,3.7331,3.7337,3.7331,3.7228,0,0,0,0,0,3.6937,3.6982,3.6982,3.6995,3.7064,3.7116,3.7125,3.7137,3.7122,3.7144,3.7164,3.7159,3.7259,3.7235,3.7248,3.7277,3.7377,3.7381,3.7385,3.7401,3.7409,3.7415,0,0,0,0,0,0,3.6942,3.6958,3.6981,3.7019,3.7035,3.7114,3.7091,3.7095,3.7119,3.7118,3.7156,3.7161,3.7171,3.723,3.7241,3.7269,3.7224,3.7378,3.7382,3.7385,3.7404,3.741,3.7415,0,0,0,0,0,3.6947,3.6959,3.7067,3.7019,3.7033,3.706,3.7089,3.7093,3.7111,3.7141,3.7146,3.7118,3.7172,3.7182,3.7236,3.7263,3.7217,3.7221,3.7381,3.7384,3.7386,3.7407,0,0,0,0,0,0,3.695,3.6963,3.707,3.7075,3.7002,3.7056,3.7065,3.709,3.7134,3.7139,3.7104,3.7103,3.7173,3.718,3.7188,3.7261,3.7211,3.7215,3.7217,3.7383,3.7385,3.7387,0,0,0,0,0,0,3.6956,3.6967,3.7073,3.7051,3.7053,3.7052,3.706,3.7107,3.7134,3.7094,3.7094,3.7103,3.7161,3.718,3.7185,3.7259,3.7206,3.721,3.7213,3.7214,3.7385,3.7387,0,0,0,0,0,0,3.6961,3.697,3.705,3.7051,3.7053,3.7106,3.7094,3.7164,3.7116,3.7092,3.7112,3.711,3.716,3.7166,3.7184,3.7255,3.7258,3.7206,3.7209,3.7211,3.7212,0,0,0,0,0,0,0,3.6965,3.69,3.7043,3.7052,3.7053,3.7117,3.7119,3.712,3.7116,3.7114,3.7113,3.7111,3.7184,3.7188,3.7192,3.7251,0,0,3.7206,3.7208,0,0,0,0,0,0,0,0,3.6897,3.6899,3.7043,3.7044,3.7045,3.7118,3.7119,3.712,3.7116,3.7114,3.7113,3.7112,3.7185,3.7188,3.7192,0,0,0,0,0,0,0,0,0,0,0,0,0,0,0,3.7043,3.7044,0,3.7118,3.7119,3.7119,3.7115,3.7114,3.7113,3.7112,3.7186,3.7189,3.7191,0,0,0,0,0,0,0,0,0,0,0,0,0,0,0,0,0,0,0,0,0,0,0,0,0,0,0,0,0,0,0,0,0,0,0,0,0,0,0,0,0,0,0,0,0,0,0,0,0,0,0,0,0,0,0,0,0,0,0,0,0,0,0,0,0,0,0,0,0]}],[{"header":{"parameterUnit":"kt","parameterCategory":2,"dx":1,"dy":1,"la1":30.253999710083008,"la2":30.299108505249023,"lo1":-89.0895004272461,"lo2":-89.04439544677734,"nx":28,"ny":28,"refTime":"2022-10-25T21:00:00:Z","depth":0,"parameterNumber":2,"parameterNumberName":"V-component_of_WINDS"},"data":[-14.7588,-14.7914,-14.7964,-14.8356,-14.8466,-14.8742,-14.8855,-14.9006,-14.9137,-14.9467,-14.9665,-14.9743,-14.9888,-15.0132,-15.0345,-15.0373,-15.046,-15.0542,-15.0561,-15.0159,-15.0106,-15.0056,-14.9983,-15.056,-15.0561,-15.0972,-15.0975,-15.0978,-14.7289,-14.7403,-14.7625,-14.7874,-14.8064,-14.8016,-14.8206,-14.8368,-14.8614,-14.8777,-14.8974,-14.9267,-14.9502,-14.9622,-14.9855,-15.0004,-14.9992,-15.0063,-15.0053,-15.0076,-14.9648,-14.9571,-15.0069,-15.0069,-15.0069,-15.0069,-15.0069,-15.0069,-14.6759,-14.6953,-14.7132,-14.7374,-14.7511,-14.7675,-14.7867,-14.796,-14.8175,-14.8428,-14.844,-14.8717,-14.8886,-14.9188,-14.9299,-14.9513,-14.9442,-14.9533,-14.9556,-14.9578,-14.9598,-14.9,-14.9554,-14.9553,-14.9552,-14.9551,-14.955,0,-14.6385,-14.6414,-14.663,-14.6862,-14.704,-14.7222,-14.7397,-14.7516,-14.7585,-14.7759,-14.8015,-14.8169,-14.8471,-14.8713,-14.894,-14.9037,-14.9,-14.9,-14.9063,-14.9063,-14.9034,-14.9054,-14.8354,-14.8983,-14.8979,-14.8975,-14.8973,-14.8971,-14.5854,-14.6074,-14.6284,-14.6429,-14.6537,-14.677,-14.6917,-14.6962,-14.7116,-14.7335,-14.7501,-14.7745,-14.7943,-14.8339,-14.8439,-14.8663,-14.8647,-14.8883,-14.868,-14.8671,-14.8651,-14.8638,-14.866,-14.8921,-14.8927,-14.8932,-14.8937,0,-14.5551,-14.5628,-14.5983,-14.6168,-14.622,-14.6447,-14.6603,-14.6795,-14.6863,-14.7137,-14.7203,-14.7308,-14.7555,-14.7619,-14.7911,-14.7936,-14.8305,-14.8283,-14.8248,-14.8247,-14.8465,-14.8444,-14.9161,-14.9257,-14.8659,-14.8664,-14.8669,0,-14.5128,-14.5414,-14.5512,-14.5714,-14.6032,-14.607,-14.6383,-14.6472,-14.662,-14.6836,-14.6806,-14.7008,-14.7057,-14.7268,-14.7304,-14.7617,-14.7671,-14.7708,-14.7715,-14.7712,-14.7708,-14.7792,-14.7764,-14.772,-14.7716,-14.7713,-14.771,0,-14.4645,-14.5032,-14.536,-14.546,-14.5684,-14.5836,-14.5936,-14.61,-14.6244,-14.6439,-14.6532,-14.6755,-14.6877,-14.7049,-14.7094,-14.6955,-14.7477,-14.7294,-14.7515,-14.7514,-14.7627,-14.762,-14.8239,-14.7705,-14.7704,-14.7703,-14.7701,0,-14.4314,-14.4516,-14.4981,-14.5166,-14.5265,-14.548,-14.5705,-14.5904,-14.6079,-14.6118,-14.6271,-14.6257,-14.6535,-14.635,-14.6733,-14.6538,-14.6659,-14.672,-14.6737,-14.6766,-14.6556,-14.6898,-14.7481,-14.7545,-14.6792,-14.6784,-14.6778,0,-14.3741,-14.423,-14.4267,-14.4706,-14.494,-14.4892,-14.5131,-14.5288,-14.5359,-14.5565,-14.5641,-14.5875,-14.575,-14.5831,-14.6013,-14.61,-14.6353,-14.6067,-14.636,-14.637,-14.6317,-14.6854,-14.6926,-14.7346,-14.6681,-14.6691,-14.6699,0,-14.3305,-14.3577,-14.3653,-14.3769,-14.3985,-14.418,-14.4454,-14.4696,-14.4831,-14.501,-14.524,-14.5568,-14.5488,-14.5622,-14.5634,-14.5819,-14.6182,-14.5706,-14.5711,-14.5791,-14.6638,-14.6705,-14.6775,-14.6148,-14.616,-14.617,-14.6622,0,-14.279,-14.3044,-14.3252,-14.3508,-14.3669,-14.3947,-14.4017,-14.4176,-14.4173,-14.4241,-14.4579,-14.4721,-14.4964,-14.5059,-14.5056,-14.5461,-14.5403,-14.5313,-14.5137,-14.5488,-14.5639,-14.5701,-14.4907,-14.4902,-14.4898,-14.4894,0,0,-14.2222,-14.2587,-14.2619,-14.2888,-14.3025,-14.2971,-14.3262,-14.3388,-14.3645,-14.374,-14.3642,-14.4127,-14.4247,-14.4648,-14.4763,-14.4861,-14.4939,-14.4813,-14.532,-14.5368,-14.5412,-14.5572,-14.5635,-14.4887,-14.4886,-14.4884,-14.4883,0,-14.2049,-14.2179,-14.2467,-14.2601,-14.28,-14.2859,-14.2928,-14.3114,-14.3171,-14.3503,-14.345,-14.3659,-14.4045,-14.4179,-14.4298,-14.4767,-14.4713,-14.4835,-14.5066,-14.5277,-14.533,-14.5376,-14.5544,-14.5604,-14.4873,-14.4874,-14.4874,0,-14.1633,-14.1773,-14.1919,-14.2231,-14.236,-14.2601,-14.2435,-14.2696,-14.2874,-14.2796,-14.3126,-14.3214,-14.3398,-14.3769,-14.3937,-14.3852,-14.4505,-14.431,-14.4337,-14.4357,-14.4565,-14.4628,-14.4684,-14.3943,-14.3939,-14.3936,0,0,-14.1473,-14.171,-14.1871,-14.2199,-14.2284,-14.2376,-14.251,-14.2521,-14.2691,-14.2758,-14.287,-14.3034,-14.3258,-14.3405,-14.3619,-14.4016,-14.4056,-14.4193,-14.4237,-14.4272,-14.4311,-14.4528,-14.4591,-14.3923,-14.3923,-14.3922,0,0,-14.1396,-14.1598,-14.1565,-14.1955,-14.212,-14.2298,-14.2494,-14.2458,-14.2658,-14.2633,-14.2659,-14.2704,-14.3051,-14.3139,-14.2955,-14.3556,-14.338,-14.3425,-14.3487,-14.3543,-14.3586,-14.3558,-14.2801,0,0,0,0,0,-14.1255,-14.1573,-14.1541,-14.1617,-14.2009,-14.2316,-14.2366,-14.2397,-14.2273,-14.2428,-14.2515,-14.2449,-14.3045,-14.2883,-14.2955,-14.3161,-14.3753,-14.3783,-14.3811,-14.3984,-14.4042,-14.4091,0,0,0,0,0,0,-14.1285,-14.1378,-14.1533,-14.1724,-14.1812,-14.2305,-14.2101,-14.2118,-14.2257,-14.224,-14.2435,-14.2456,-14.2485,-14.2847,-14.2913,-14.3107,-14.2779,-14.3764,-14.379,-14.3813,-14.4004,-14.4052,-14.4092,0,0,0,0,0,-14.1309,-14.1384,-14.2005,-14.172,-14.1797,-14.1915,-14.2089,-14.2102,-14.221,-14.2346,-14.2364,-14.2221,-14.249,-14.2547,-14.2886,-14.3076,-14.2734,-14.2758,-14.3781,-14.3801,-14.3819,-14.4027,0,0,0,0,0,0,-14.1327,-14.1397,-14.2021,-14.2045,-14.1603,-14.1888,-14.1934,-14.2088,-14.2306,-14.2329,-14.2131,-14.2115,-14.2498,-14.254,-14.2584,-14.3065,-14.2697,-14.2722,-14.2737,-14.3797,-14.3812,-14.3826,0,0,0,0,0,0,-14.1357,-14.1418,-14.2033,-14.1884,-14.1891,-14.1863,-14.1904,-14.2195,-14.231,-14.2079,-14.2073,-14.2122,-14.243,-14.2537,-14.2571,-14.3024,-14.2669,-14.2693,-14.2709,-14.2719,-14.3809,-14.3822,0,0,0,0,0,0,-14.1383,-14.1436,-14.1877,-14.1884,-14.1889,-14.2165,-14.212,-14.2518,-14.2185,-14.207,-14.2156,-14.2143,-14.2429,-14.2463,-14.2562,-14.3002,-14.3019,-14.267,-14.2686,-14.2697,-14.2705,0,0,0,0,0,0,0,-14.1404,-14.1046,-14.1877,-14.1883,-14.1888,-14.2271,-14.2277,-14.2284,-14.2182,-14.2171,-14.2159,-14.2148,-14.2535,-14.2561,-14.2587,-14.2984,0,0,-14.2668,-14.2679,0,0,0,0,0,0,0,0,-14.1024,-14.1041,-14.1878,-14.1883,-14.1888,-14.2272,-14.2277,-14.2283,-14.218,-14.2171,-14.2162,-14.2153,-14.2542,-14.2563,-14.2584,0,0,0,0,0,0,0,0,0,0,0,0,0,0,0,-14.1878,-14.1882,0,-14.2273,-14.2277,-14.2282,-14.2179,-14.2171,-14.2164,-14.2156,-14.2548,-14.2565,-14.2582,0,0,0,0,0,0,0,0,0,0,0,0,0,0,0,0,0,0,0,0,0,0,0,0,0,0,0,0,0,0,0,0,0,0,0,0,0,0,0,0,0,0,0,0,0,0,0,0,0,0,0,0,0,0,0,0,0,0,0,0,0,0,0,0,0,0,0,0,0]}]]]